This demonstration page uses our WeatherBlox Daily Observations layout. Learn more.

Left ArrowRight Arrow

39.08367, -84.50855

Hourly Observations for April 8, 2019

Temp ( °F °C ) Dew Point ( °F °C ) Humidity (%) Winds ( mph kmh ) Pressure ( in mb ) Visibility ( mi km ) Precip ( " mm )
12:53 am 00:53 Clear 61 16.1 57 13.9 87 87 SSW 12 19 29.92 1013 10 16.0934 0 0
1:53 am 01:53 Clear 61 16.1 56 13.3 84 84 SSW 8 13 29.92 1013 10 16.0934 0 0
2:53 am 02:53 Clear 57 13.9 54 12.2 90 90 Calm 29.91 1013 10 16.0934 0 0
3:38 am 03:38 Mostly Cloudy 57 13.9 55 12.8 93 93 Calm 29.91 1013 10 16.0934 0 0
3:53 am 03:53 Cloudy 58 14.4 55 12.8 90 90 Calm 29.91 1013 10 16.0934 0 0
4:53 am 04:53 Cloudy 62 16.7 58 14.4 86 86 SW 8 13 29.92 1013 10 16.0934 0 0
5:53 am 05:53 Cloudy with Light Rain 62 16.7 58 14.4 86 86 N 5 7 29.93 1013 10 16.0934 0 0.0254
6:18 am 06:18 Cloudy 61 16.1 58 14.4 90 90 S 3 6 29.93 1013 10 16.0934 0 0.0254
6:53 am 06:53 Cloudy 62 16.7 58 14.4 86 86 SSE 6 9 29.92 1013 10 16.0934 0 0.0254
7:53 am 07:53 Partly Cloudy 61 16.1 58 14.4 90 90 SSW 3 6 29.92 1013 10 16.0934 0 0
8:53 am 08:53 Sunny 63 17.2 59 15 87 87 SSW 7 11 29.9 1013 10 16.0934 0 0
9:53 am 09:53 Sunny 64 17.8 60 15.6 87 87 SSW 5 7 29.92 1013 10 16.0934 0 0
10:44 am 10:44 Mostly Cloudy 65 18.3 60 15.6 84 84 VRB 6 9 29.93 1014 10 16.0934 0 0
10:53 am 10:53 Mostly Cloudy 65 18.3 60 15.6 84 84 SW 7 11 29.94 1014 10 16.0934 0 0
11:53 am 11:53 Mostly Cloudy 65 18.3 59 15 81 81 SW 10 17 29.93 1014 10 16.0934 0 0
12:53 pm 12:53 Cloudy 66 18.9 58 14.4 75 75 WSW 7 11 29.92 1013 10 16.0934 0 0
1:32 pm 13:32 Sunny 67 19.4 59 15 76 76 S 5 7 29.9 1013 10 16.0934 0 0
2:53 pm 14:53 Sunny 69 20.6 58 14.4 68 68 S 8 13 29.88 1012 10 16.0934 0 0
3:53 pm 15:53 Sunny 71 21.7 58 14.4 63 63 SW 7 11 29.86 1011 10 16.0934 0 0
5:53 pm 17:53 Mostly Cloudy 72 22.2 57 13.9 59 59 SSE 5 7 29.83 1010 10 16.0934 0 0
6:53 pm 18:53 Mostly Sunny 71 21.7 56 13.3 59 59 Calm 29.82 1010 10 16.0934 0 0
7:53 pm 19:53 Partly Cloudy 67 19.4 59 15 76 76 Calm 29.81 1010 10 16.0934 0 0
8:53 pm 20:53 Mostly Clear 65 18.3 57 13.9 76 76 Calm 29.82 1010 10 16.0934 0 0
9:53 pm 21:53 Mostly Cloudy 61 16.1 58 14.4 90 90 Calm 29.82 1010 10 16.0934 0 0
10:53 pm 22:53 Clear 60 15.6 57 13.9 90 90 Calm 29.83 1010 10 16.0934 0 0

Powered by AerisWeather